Regional Weather Roundup
Issued by NWS

Home | Current Version | Previous Version | Graphics & Text | Print | Product List | Glossary On
Versions: 1 2 3 4 5 6 7 8 9 10 11 12 13 14 15 16 17 18 19 20 21 22 23 24 25 26 27 28 29 30 31 32 33 34 35 36 37 38 39 40 41 42 43 44 45 46 47 48 49 50
000
ASUS43 KLOT 231508
RWRIL

ILLINOIS REGIONAL WEATHER ROUNDUP
NATIONAL WEATHER SERVICE CHICAGO/ROMEOVILLE IL
1000 AM CDT WED AUG 23 2017

NOTE: "FAIR" INDICATES FEW OR NO CLOUDS BELOW 12,000 FEET WITH NO
SIGNIFICANT WEATHER AND/OR OBSTRUCTIONS TO VISIBILITY.

* THESE STATIONS ARE NOT UNDER NWS QUALITY CONTROL. THEY ALSO MAY NOT
  REPORT WEATHER SUCH AS PRECIPITATION OR FOG.

ILZ001-002-007-009-015-016-024-231600-
NORTHWEST ILLINOIS

CITY           SKY/WX    TMP DP  RH WIND       PRES   REMARKS
MOLINE         SUNNY     71  52  50 W8        30.10S
STERLING*      SUNNY     69  55  60 VRB5      30.09S
SAVANNA*       SUNNY     67  54  62 W5        30.09S
$$

ILZ003-004-008-010-011-017-018-231600-
NORTH CENTRAL ILLINOIS

CITY           SKY/WX    TMP DP  RH WIND       PRES   REMARKS
ROCKFORD       SUNNY     68  53  58 NW7       30.08R
FREEPORT*      SUNNY     66  53  62 W5        30.10R
ROCHELLE*      SUNNY     67  54  63 NW7       30.08S
DE KALB*       SUNNY     66  56  71 NW7       30.07S
PERU*          SUNNY     66  55  66 NW6       30.09R
$$

ILZ005-006-012>014-019>023-231600-
NORTHEAST ILLINOIS

CITY           SKY/WX    TMP DP  RH WIND       PRES   REMARKS
CHICAGO-OHARE  SUNNY     71  50  47 NW9       30.04S
CHICAGO-MIDWAY SUNNY     72  51  47 NW10      30.03S
AURORA         SUNNY     67  57  70 NW7       30.07R
LANSING*       SUNNY     72  55  55 W9        30.04S
JOLIET*        SUNNY     70  56  61 NW5       30.06S
WAUKEGAN       SUNNY     68  55  63 NW8       30.03R
DUPAGE AIRPORT SUNNY     68  54  60 NW6       30.05S
KANKAKEE*      SUNNY     69  57  65 NW7       30.08R
WHEELING       SUNNY     70  54  56 NW8       30.05S
MORRIS*        SUNNY     68  56  65 NW5       30.06R
ROMEOVILLE*    SUNNY     70  55  60 NW7       30.06R
NORTHERLY ISL    N/A     71  48  43 NW7         N/A
$$

LMZ740>746-231600-
SOUTHERN LAKE MICHIGAN

STATION/POSITION SKY/WX   TEMP    WIND        PRES    VSBY  WAVE
                          AIR SEA DIR/SP/G                  HT/PER
                          (F)     (DEG/KT/KT) (MB)    (MI)  (FT/S)
SOUTHERN BUOY              65 71  340/ 16/ 17 1015.9          4/ 5
WILMETTE HARBOR            67 73  310/ 10/ 14   N/A           3/ 3
HARRISON CRIB              69     310/  9/ 11   N/A
CALUMET HARBOR             72     270/  5/  9 1016.4S
BURNS HARBOR               69     310/ 10/ 13 1017.6R
MICHIGAN CITY              69     300/ 15/ 17   N/A
MICHIGAN CITY 6N           68 73  320/ 14/ 17   N/A           4/ 6
ST. JOSEPH                 68 73  350/ 14/ 17 1016.7          4/ 5
$$

ILZ025>027-034>036-040-047-049-050-058-095>099-231600-
WEST-CENTRAL ILLINOIS

CITY           SKY/WX    TMP DP  RH WIND       PRES   REMARKS
QUINCY         SUNNY     69  56  62 NW8       30.14R
GALESBURG*     SUNNY     66  56  70 W7        30.13R
MACOMB*        SUNNY     68  55  62 NW7       30.15R
JACKSONVILLE*  SUNNY     68  55  63 N5        30.13R
PITTSFIELD*    SUNNY     70  55  59 N7        30.14S
$$

ILZ028>032-037-038-041>044-048-051>054-059>061-231600-
CENTRAL ILLINOIS

CITY           SKY/WX    TMP DP  RH WIND       PRES   REMARKS
PONTIAC        SUNNY     68  60  76 CALM      30.10R
BLOOMINGTON    SUNNY     69  54  58 N10       30.11R
DECATUR        SUNNY     71  55  56 N5        30.10R
PEORIA         SUNNY     70  54  56 N6        30.11R
LACON*         SUNNY     68  55  63 W5        30.09R
LINCOLN*       SUNNY     68  59  72 NW3       30.11R
SPRINGFIELD    SUNNY     71  59  65 NW3       30.11S
TAYLORVILLE    SUNNY     68  57  69 CALM      30.11S
$$

ILZ033-039-045-046-055>057-062-063-231600-
EAST-CENTRAL ILLINOIS

CITY           SKY/WX    TMP DP  RH WIND       PRES   REMARKS
CHAMPAIGN      SUNNY     71  57  61 VRB3      30.09R
RANTOUL*       SUNNY     71  57  62 N5        30.09R
MATTOON        SUNNY     70  58  65 NW3       30.09R
PARIS*         SUNNY     72  56  58 CALM      30.09S
$$

ILZ079-100>102-231600-
SOUTHWEST ILLINOIS

CITY           SKY/WX    TMP DP  RH WIND       PRES   REMARKS
ALTON          SUNNY     70  57  64 N9        30.12S
BELLEVILLE     SUNNY     71  57  61 N9        30.12S
CAHOKIA*       SUNNY     73  53  49 N6        30.12S
SPARTA*        SUNNY     69  57  65 N3        30.12S
$$

ILZ064>066-069>071-074>076-080>082-084>086-088>090-092>094-231600-
SOUTH-CENTRAL ILLINOIS

CITY           SKY/WX    TMP DP  RH WIND       PRES   REMARKS
CARBONDALE     SUNNY     72  59  63 VRB5      30.10S
CAIRO*         MOSUNNY   73  62  68 NW6       30.10R
EFFINGHAM*     SUNNY     71  58  64 NW6       30.11S
MARION         MOSUNNY   70  59  68 N5        30.10S
MT. VERNON       N/A     71  57  61 VRB3      30.10S
CENTRALIA*     SUNNY     72  59  64 N6        30.10S
SALEM*         SUNNY     72  57  58 N5        30.10S
METROPOLIS*    SUNNY     73  61  66 N5        30.09S
$$

ILZ067-068-072-073-078-083-087-091-231600-
SOUTHEAST ILLINOIS

CITY           SKY/WX    TMP DP  RH WIND       PRES   REMARKS
LAWRENCEVILLE  SUNNY     72  57  59 N8        30.08S
FLORA*         SUNNY     71  59  65 N7        30.09F
FAIRFIELD*     SUNNY     71  56  60 N5        30.08S
HARRISBURG*    SUNNY     71  59  65 N6        30.09S
ROBINSON*      SUNNY     70  58  66 N6        30.09S
CARMI*         SUNNY     69  62  77 N3        30.08R
$$

ABBREVIATIONS USED IN REMARKS
   TC - TEMPERATURE IN CELSIUS
  WCI - WIND CHILL INDEX
   HX - HEAT INDEX
  VSB - VISIBILITY
$$




USA.gov is the U.S. government's official web portal to all federal, state and local government web resources and services.